Grayling, MI

4:08 AM EDT on July 21, 2017 (GMT -0400)
Grayling

Weather History for KGOV - September, 2013

Change the Weather History Date:

Tuesday, September 24, 2013

  Actual Average (KHTL) Record (KHTL)
Temperature  
Mean Temperature 50 °F -  
Max Temperature 68 °F 62 °F 86 °F (2007)
Min Temperature 31 °F 40 °F 22 °F (1943)
Degree Days  
Heating Degree Days 16    
Moisture  
Dew Point 40 °F    
Average Humidity 79    
Maximum Humidity 100    
Minimum Humidity 38    
Precipitation  
Precipitation 0.00 in - - ()
Sea Level Pressure  
Sea Level Pressure 30.11 in    
Wind  
Wind Speed 1 mph (SE)    
Max Wind Speed 8 mph    
Max Gust Speed -    
Visibility 8 miles    
Events Fog    
Averages and records for this station are not official NWS values.
T = Trace of Precipitation, MM = Missing Value Source: NWS Daily Summary

Daily Weather History Graph

Daily Weather History Graph

Search for Another Location

Airport or City:

Trip Planner

Search our weather history database for the weather conditions in past years. The results will help you decide how hot, cold, wet, or windy it might be!

Date:

Astronomy

Sep. 24, 2013 Rise Set
Actual Time 7:28 AM EDT 7:32 PM EDT
Civil Twilight 6:59 AM EDT 8:01 PM EDT
Nautical Twilight 6:25 AM EDT 8:35 PM EDT
Astronomical Twilight 5:50 AM EDT 9:10 PM EDT
Moon 10:36 PM EDT (9/24) 12:55 PM EDT (9/24)
Length of Visible Light 13h 01m
Length of Day
12h 03m
Waning Gibbous, 73% of the Moon is Illuminated
Sep 24
Waning Gibbous
Sep 26
Last Quarter
Oct 4
New
Oct 11
First Quarter
Oct 18
Full

Hourly Weather History & Observations

Time (EDT) Temp. Dew Point Humidity Pressure Visibility Wind Dir Wind Speed Gust Speed Precip Events Conditions
12:15 AM 35.8 °F 35.1 °F 97% 30.16 in 10.0 mi Calm Calm - N/A   Clear
12:34 AM 35.8 °F 35.4 °F 99% 30.16 in 10.0 mi Calm Calm - N/A   Clear
12:55 AM 35.8 °F 35.4 °F 99% 30.16 in 10.0 mi Calm Calm - N/A   Clear
1:15 AM 34.5 °F 34.3 °F 99% 30.16 in 10.0 mi Calm Calm - N/A   Clear
1:34 AM 33.3 °F 33.3 °F 100% 30.16 in 10.0 mi Calm Calm - N/A   Clear
1:55 AM 33.3 °F 33.3 °F 100% 30.16 in 10.0 mi Calm Calm - N/A   Clear
2:15 AM 33.3 °F 32.9 °F 99% 30.16 in 10.0 mi Calm Calm - N/A   Clear
2:34 AM 33.3 °F 32.5 °F 97% 30.16 in 10.0 mi Calm Calm - N/A   Clear
2:55 AM 31.8 °F 31.8 °F 100% 30.16 in 2.5 mi Calm Calm - N/A   Clear
3:14 AM 33.3 °F 33.3 °F 100% 30.15 in 10.0 mi Calm Calm - N/A   Clear
3:35 AM 33.3 °F 33.3 °F 100% 30.15 in 10.0 mi Calm Calm - N/A   Clear
3:54 AM 32.5 °F 32.2 °F 99% 30.15 in 10.0 mi Calm Calm - N/A   Clear
4:15 AM 31.1 °F 30.4 °F 97% 30.15 in 10.0 mi Calm Calm - N/A   Clear
4:34 AM 32.0 °F 31.8 °F 99% 30.15 in 10.0 mi Calm Calm - N/A   Clear
4:55 AM 31.1 °F 30.6 °F 98% 30.16 in 10.0 mi Calm Calm - N/A   Clear
5:14 AM 33.3 °F 32.0 °F 95% 30.16 in 10.0 mi Calm Calm - N/A   Clear
5:35 AM 31.1 °F 30.2 °F 96% 30.16 in 10.0 mi Calm Calm - N/A   Mostly Cloudy
5:55 AM 33.1 °F 31.8 °F 95% 30.16 in 10.0 mi Calm Calm - N/A   Overcast
6:14 AM 33.3 °F 32.0 °F 95% 30.16 in 10.0 mi Calm Calm - N/A   Overcast
6:35 AM 32.5 °F 31.3 °F 95% 30.16 in 10.0 mi Calm Calm - N/A   Overcast
6:55 AM 33.3 °F 33.3 °F 100% 30.17 in 0.2 mi Calm Calm - N/A Fog Fog
7:15 AM 33.3 °F 33.3 °F 100% 30.17 in 0.2 mi Calm Calm - N/A Fog Fog
7:34 AM 33.1 °F 33.1 °F 100% 30.18 in 0.2 mi Calm Calm - N/A Fog Fog
7:55 AM 33.3 °F 33.3 °F 100% 30.18 in 0.2 mi Calm Calm - N/A Fog Fog
8:14 AM 33.3 °F 33.3 °F 100% 30.18 in 0.2 mi Calm Calm - N/A Fog Fog
8:35 AM 33.3 °F 33.3 °F 100% 30.18 in 0.2 mi Calm Calm - N/A Fog Fog
8:55 AM 35.8 °F 35.8 °F 100% 30.18 in 0.2 mi Calm Calm - N/A Fog Fog
9:14 AM 35.8 °F 35.8 °F 100% 30.18 in 0.8 mi Calm Calm - N/A   Overcast
9:35 AM 38.3 °F 38.3 °F 100% 30.18 in 0.5 mi Calm Calm - N/A Fog Fog
9:54 AM 40.5 °F 40.5 °F 100% 30.18 in 2.5 mi Calm Calm - N/A   Overcast
10:15 AM 43.7 °F 43.7 °F 100% 30.17 in 10.0 mi Calm Calm - N/A   Scattered Clouds
10:35 AM 48.4 °F 45.9 °F 91% 30.16 in 10.0 mi Calm Calm - N/A   Clear
10:55 AM 53.4 °F 47.7 °F 81% 30.16 in 10.0 mi Calm Calm - N/A   Clear
11:15 AM 55.9 °F 46.4 °F 70% 30.16 in 10.0 mi Calm Calm - N/A   Clear
11:34 AM 57.4 °F 44.6 °F 62% 30.15 in 10.0 mi Calm Calm - N/A   Clear
11:55 AM 58.5 °F 44.8 °F 60% 30.14 in 10.0 mi Calm Calm - N/A   Clear
12:14 PM 58.8 °F 44.8 °F 60% 30.14 in 10.0 mi SSE 3.5 mph - N/A   Clear
12:35 PM 59.9 °F 44.6 °F 57% 30.13 in 10.0 mi East 8.1 mph - N/A   Clear
12:55 PM 60.3 °F 44.2 °F 55% 30.12 in 10.0 mi Calm Calm - N/A   Clear
1:14 PM 61.0 °F 44.2 °F 54% 30.12 in 10.0 mi SE 6.9 mph - N/A   Clear
1:35 PM 62.1 °F 43.5 °F 51% 30.11 in 10.0 mi SE 5.8 mph - N/A   Clear
1:54 PM 63.3 °F 43.7 °F 49% 30.10 in 10.0 mi SE 3.5 mph - N/A   Clear
2:15 PM 63.5 °F 43.0 °F 47% 30.09 in 10.0 mi Calm Calm - N/A   Clear
2:35 PM 64.9 °F 43.2 °F 45% 30.08 in 10.0 mi SE 5.8 mph - N/A   Clear
2:54 PM 67.1 °F 43.7 °F 43% 30.08 in 10.0 mi SSE 3.5 mph - N/A   Clear
3:15 PM 68.5 °F 44.1 °F 41% 30.07 in 10.0 mi SE 5.8 mph - N/A   Clear
3:34 PM 68.5 °F 43.3 °F 40% 30.07 in 10.0 mi Calm Calm - N/A   Clear
3:55 PM 68.5 °F 43.0 °F 40% 30.07 in 10.0 mi ESE 4.6 mph - N/A   Clear
4:15 PM 68.5 °F 42.6 °F 39% 30.06 in 10.0 mi ESE 8.1 mph - N/A   Clear
4:34 PM 68.5 °F 42.4 °F 39% 30.05 in 10.0 mi Calm Calm - N/A   Clear
4:55 PM 68.5 °F 42.3 °F 38% 30.04 in 10.0 mi ESE 6.9 mph - N/A   Clear
5:14 PM 68.5 °F 42.6 °F 39% 30.05 in 10.0 mi Calm Calm - N/A   Clear
5:35 PM 68.5 °F 43.5 °F 40% 30.04 in 10.0 mi South 4.6 mph - N/A   Clear
5:55 PM 68.5 °F 44.2 °F 42% 30.04 in 10.0 mi SSE 5.8 mph - N/A   Clear
6:14 PM 68.5 °F 44.2 °F 42% 30.04 in 10.0 mi South 3.5 mph - N/A   Clear
6:35 PM 68.2 °F 44.8 °F 43% 30.04 in 10.0 mi South 4.6 mph - N/A   Clear
6:55 PM 66.0 °F 44.2 °F 45% 30.04 in 10.0 mi South 3.5 mph - N/A   Clear
7:14 PM 60.6 °F 45.3 °F 57% 30.04 in 10.0 mi Calm Calm - N/A   Clear
7:35 PM 55.6 °F 45.1 °F 68% 30.04 in 10.0 mi Calm Calm - N/A   Clear
7:54 PM 54.9 °F 46.8 °F 74% 30.04 in 10.0 mi Calm Calm - N/A   Clear
8:15 PM 53.6 °F 46.8 °F 78% 30.04 in 10.0 mi Calm Calm - N/A   Clear
8:35 PM 49.6 °F 45.9 °F 87% 30.04 in 10.0 mi Calm Calm - N/A   Clear
8:54 PM 48.4 °F 46.4 °F 93% 30.04 in 10.0 mi Calm Calm - N/A   Clear
9:15 PM 48.4 °F 46.6 °F 93% 30.04 in 10.0 mi Calm Calm - N/A   Clear
9:34 PM 45.7 °F 43.5 °F 92% 30.04 in 10.0 mi Calm Calm - N/A   Clear
9:55 PM 43.3 °F 42.8 °F 98% 30.03 in 10.0 mi Calm Calm - N/A   Clear
10:15 PM 45.1 °F 44.8 °F 99% 30.04 in 10.0 mi Calm Calm - N/A   Clear
10:35 PM 40.1 °F 39.7 °F 99% 30.04 in 10.0 mi Calm Calm - N/A   Clear
10:55 PM 41.0 °F 40.6 °F 99% 30.04 in 10.0 mi Calm Calm - N/A   Clear
11:14 PM 40.8 °F 40.8 °F 100% 30.04 in 7.0 mi Calm Calm - N/A   Clear
11:35 PM 37.4 °F 37.4 °F 100% 30.05 in 7.0 mi Calm Calm - N/A   Clear
11:54 PM 39.7 °F 39.7 °F 100% 30.04 in 7.0 mi Calm Calm - N/A   Clear